Plattsburgh, NY

2:06 PM EDT on March 29, 2017 (GMT -0400)
Plattsburgh International

Weather History for KPBG - June, 2014

Change the Weather History Date:

Tuesday, June 10, 2014

  Actual Average Record
Temperature  
Mean Temperature 65 °F 63 °F  
Max Temperature 73 °F 74 °F 92 °F (1959)
Min Temperature 56 °F 52 °F 41 °F (1980)
Degree Days  
Heating Degree Days 0 4  
Month to date heating degree days 46  
Since 1 June heating degree days 46  
Since 1 July heating degree days 7673  
Cooling Degree Days 0 2  
Month to date cooling degree days 19 13  
Year to date cooling degree days 32 21  
Since 1 June cooling degree days 19 13  
Growing Degree Days 16 (Base 50)    
Moisture  
Dew Point 56 °F    
Average Humidity 74    
Maximum Humidity 87    
Minimum Humidity 61    
Precipitation  
Precipitation T in - 0.54 in (2008)
Month to date precipitation 1.27  
Year to date precipitation 10.28  
Sea Level Pressure  
Sea Level Pressure 30.00 in    
Wind  
Wind Speed 8 mph (North)    
Max Wind Speed 21 mph    
Max Gust Speed 26 mph    
Visibility 10 miles    
Events Rain    
T = Trace of Precipitation, MM = Missing Value Source: NWS Daily Summary

Daily Weather History Graph

Daily Weather History Graph

Search for Another Location

Airport or City:

Trip Planner

Search our weather history database for the weather conditions in past years. The results will help you decide how hot, cold, wet, or windy it might be!

Date:

Astronomy

Jun. 10, 2014 Rise Set
Actual Time 5:08 AM EDT 8:38 PM EDT
Civil Twilight 4:31 AM EDT 9:15 PM EDT
Nautical Twilight 3:43 AM EDT 10:03 PM EDT
Astronomical Twilight 2:41 AM EDT 11:06 PM EDT
Moon 5:55 PM EDT (6/10) 3:19 AM EDT (6/10)
Length of Visible Light 16h 43m
Length of Day
15h 30m
Waxing Gibbous, 92% of the Moon is Illuminated
Jun 10
Waxing Gibbous
Jun 13
Full
Jun 19
Last Quarter
Jun 27
New
Jul 5
First Quarter

Hourly Weather History & Observations

Time (EDT) Temp. Dew Point Humidity Pressure Visibility Wind Dir Wind Speed Gust Speed Precip Events Conditions
12:53 AM 68.0 °F 55.0 °F 63% 29.94 in 10.0 mi NE 5.8 mph - N/A   Overcast
1:53 AM 66.0 °F 59.0 °F 78% 29.94 in 10.0 mi Calm Calm - N/A   Overcast
2:53 AM 64.0 °F 61.0 °F 90% 29.93 in 8.0 mi North 4.6 mph - 0.00 in Rain Light Rain
3:53 AM 61.0 °F 57.0 °F 87% 29.93 in 10.0 mi NNW 4.6 mph - 0.00 in   Scattered Clouds
4:53 AM 62.1 °F 55.0 °F 78% 29.94 in 10.0 mi West 3.5 mph - N/A   Overcast
5:53 AM 63.0 °F 53.1 °F 70% 29.94 in 10.0 mi NNE 4.6 mph - N/A   Overcast
6:53 AM 63.0 °F 50.0 °F 63% 29.97 in 10.0 mi North 16.1 mph - N/A   Overcast
7:53 AM 62.1 °F 51.1 °F 67% 29.99 in 10.0 mi North 16.1 mph - 0.00 in   Overcast
8:53 AM 64.0 °F 54.0 °F 70% 30.01 in 10.0 mi North 10.4 mph - N/A   Overcast
9:53 AM 62.1 °F 54.0 °F 75% 30.02 in 10.0 mi NNW 8.1 mph - N/A   Overcast
11:53 AM 66.9 °F 54.0 °F 63% 30.01 in 10.0 mi NW 5.8 mph - N/A   Overcast
12:53 PM 69.1 °F 57.0 °F 65% 30.01 in 10.0 mi NNE 11.5 mph - N/A   Mostly Cloudy
1:53 PM 69.1 °F 59.0 °F 70% 30.01 in 10.0 mi NNE 13.8 mph - N/A   Clear
2:53 PM 70.0 °F 60.1 °F 71% 30.01 in 10.0 mi NE 12.7 mph - N/A   Clear
3:53 PM 70.0 °F 60.1 °F 71% 30.02 in 10.0 mi NE 11.5 mph - N/A   Partly Cloudy
5:53 PM 72.0 °F 57.9 °F 61% 30.02 in 10.0 mi NNE 12.7 mph - N/A   Clear
6:53 PM 72.0 °F 57.0 °F 59% 30.03 in 10.0 mi NNE 9.2 mph - N/A   Clear
7:53 PM 70.0 °F 55.9 °F 61% 30.04 in 10.0 mi NNE 9.2 mph - N/A   Clear
8:53 PM 68.0 °F 55.0 °F 63% 30.05 in 10.0 mi NNE 8.1 mph - N/A   Clear
9:53 PM 66.0 °F 55.0 °F 68% 30.07 in 10.0 mi North 5.8 mph - N/A   Clear
11:53 PM 59.0 °F 55.9 °F 90% 30.07 in 10.0 mi Calm Calm - N/A   Clear